Lid_Strength_Index
15 17 18 15 14 13 14 16 16 14 12 14 12 12 11 9 8 9 10 10 10 10 8 7 7 7 7 6 2 2 2 1 1 2 2 2 2 1 1 1 0 0 1 -0
16 18 14 12 12 13 14 16 16 14 12 12 12 12 9 8 8 8 9 9 10 10 9 7 7 7 8 7 2 2 2 2 1 2 1 1 1 1 1 1 0 0 1 1
17 15 11 12 13 14 15 15 16 15 12 11 12 13 11 8 9 8 7 8 9 8 8 8 7 7 7 5 3 2 2 2 1 1 2 2 2 2 3 2 2 1 1 1
16 13 12 13 13 13 16 13 13 13 14 16 12 17 14 11 10 9 9 8 7 6 5 5 5 6 6 6 2 2 2 2 1 2 3 3 3 3 2 2 1 1 1 1
15 14 13 14 13 12 15 12 13 13 14 16 15 18 16 11 12 10 9 7 6 6 5 5 5 5 5 5 6 2 2 2 2 2 3 3 3 2 2 2 2 1 1 1
13 11 12 13 11 12 11 14 14 15 16 21 16 16 16 14 12 10 8 7 7 7 6 6 5 5 4 4 5 2 2 2 2 2 3 3 3 3 4 3 2 2 2 1
14 12 11 10 13 12 14 16 22 21 21 21 15 16 15 11 10 9 9 8 7 7 7 7 7 5 5 4 4 4 3 3 2 2 3 3 3 3 4 4 3 2 2 2
17 17 13 11 13 15 16 16 20 24 22 19 13 18 15 9 8 8 8 8 8 8 8 8 8 7 6 5 4 3 3 3 2 2 2 3 3 3 4 3 3 2 2 2
17 15 11 10 11 12 15 16 12 17 16 19 17 14 11 9 10 9 9 9 9 8 8 8 7 7 5 6 5 4 4 3 3 2 2 2 3 2 3 3 3 2 1 1
14 16 12 11 11 11 13 11 16 17 21 22 18 17 17 13 12 11 11 11 10 9 9 8 8 7 7 7 6 5 5 6 6 2 2 2 2 2 2 2 2 2 1 1
13 13 14 13 14 16 16 16 13 14 16 20 21 18 12 13 12 12 11 10 10 10 9 10 9 8 8 8 8 7 6 7 7 7 4 2 2 1 1 1 1 1 1 1
12 13 16 15 12 11 13 14 14 17 19 16 17 17 10 11 11 11 11 10 10 9 9 8 10 9 10 9 9 8 7 7 6 8 7 4 2 1 2 2 1 1 1 1
12 16 17 18 15 13 13 12 12 13 14 17 19 17 10 10 12 11 12 11 10 10 9 9 9 10 10 10 9 9 8 8 7 6 6 5 2 2 2 2 1 1 1 1
8 13 16 19 15 13 14 13 13 13 17 17 16 15 13 12 13 13 12 11 12 10 10 10 9 10 10 9 10 9 9 8 7 8 6 6 6 6 2 2 1 1 1 1
11 16 16 13 13 13 14 14 13 14 14 17 16 15 13 12 13 13 12 12 12 12 11 10 10 10 10 10 9 9 8 8 8 8 8 7 5 4 3 2 2 2 2 1
11 14 12 14 11 12 14 14 13 13 15 15 14 15 12 11 11 13 13 13 13 12 12 11 10 10 10 10 10 9 9 8 8 9 8 6 5 4 2 2 2 2 2 2
12 13 14 17 13 15 18 14 14 15 14 14 17 13 12 13 13 13 13 11 11 11 11 11 11 10 9 9 9 10 9 7 8 9 8 7 5 3 3 2 2 3 3 3
13 12 13 16 16 22 15 12 12 13 13 13 12 12 12 13 13 12 11 10 10 10 10 10 10 10 10 8 8 8 8 8 8 8 7 7 6 4 2 2 2 3 3 3
12 12 15 19 17 16 15 12 14 14 15 12 13 12 12 13 13 13 11 10 9 9 9 9 8 8 9 9 7 7 8 8 8 8 7 6 5 4 3 3 3 3 3 3
10 10 14 16 18 20 18 11 11 12 18 12 12 12 13 13 17 15 12 10 9 9 9 8 8 7 9 8 8 7 7 8 8 7 6 5 4 3 3 2 3 2 3 3
14 13 15 16 17 14 13 11 11 20 18 13 12 11 13 14 14 12 11 10 9 9 9 8 8 8 9 8 8 8 7 7 6 5 5 4 3 3 2 2 2 2 2 3
16 16 17 15 17 19 10 12 16 14 14 12 11 11 12 11 11 11 11 11 9 9 9 9 9 8 7 7 8 9 7 5 4 4 4 3 2 2 2 2 2 2 3 3
17 14 17 16 17 13 11 11 11 12 13 11 11 10 11 11 11 11 12 12 11 10 9 9 9 9 8 7 7 8 8 7 5 4 3 3 2 3 3 3 3 3 3 3
13 12 14 13 13 12 10 10 9 11 11 10 10 10 10 11 11 13 13 12 12 10 10 10 10 9 9 8 7 8 7 7 6 6 6 5 5 7 6 6 5 3 3 4
14 12 13 14 12 12 10 10 10 11 10 10 9 10 10 12 13 14 14 13 12 11 11 11 10 10 10 8 8 8 8 7 7 7 7 8 9 8 11 13 13 8 8 6
13 14 14 16 12 11 11 11 10 11 11 10 10 11 12 12 13 13 14 13 12 12 11 11 11 11 10 8 8 9 8 9 9 9 8 8 8 8 9 9 11 13 13 13